Regional Weather Roundup
Issued by NWS

Home | Current Version | Previous Version | Text Only | Print | Product List | Glossary On
Versions: 1 2 3 4 5 6 7 8 9 10 11 12 13 14 15 16 17 18 19 20 21 22 23 24 25 26 27 28 29 30 31 32 33 34 35 36 37 38 39 40 41 42 43 44 45 46 47 48 49 50
000
ASUS43 KTOP 080808
RWRKS

WEATHER ROUNDUP FOR KANSAS
NATIONAL WEATHER SERVICE GOODLAND KS
200 AM CST THU DEC 08 2016

NOTE:  "FAIR" INDICATES FEW OR NO CLOUDS BELOW 12,000 FEET WITH NO
SIGNIFICANT WEATHER AND/OR OBSTRUCTIONS TO VISIBILITY.

KSZ001>006-013>018-027>032-041>047-080900-
NORTHWEST KANSAS

CITY           SKY/WX    TMP DP  RH WIND       PRES   REMARKS
GOODLAND       CLEAR     -4  -9  79 W12       30.50R WCI -22
HAYS           CLEAR      9   5  84 NW7       30.59R
HILL CITY      CLEAR      7   1  76 NW8       30.59R
RUSSELL        CLEAR     12   7  80 NW9       30.58R
$$

KSZ061>065-074>080-084>089-080900-
SOUTHWEST KANSAS

CITY           SKY/WX    TMP DP  RH WIND       PRES   REMARKS
DODGE CITY     CLEAR      9   5  84 N8        30.54R
ELKHART          N/A     14   2  59 N7          N/A
GARDEN CITY    CLEAR      5   0  79 NW5       30.54R
GREAT BEND     CLEAR     14   9  80 NW16      30.57R WCI  -2
LIBERAL        CLOUDY    16   7  67 NW10      30.55R WCI   3
PRATT          CLEAR     13   9  83 NW9       30.56S
$$

KSZ066>073-081>083-090>101-080900-
SOUTHEAST KANSAS

CITY           SKY/WX    TMP DP  RH WIND       PRES   REMARKS
CHANUTE        CLEAR     19  12  74 NW10      30.53S WCI   7
COFFEYVILLE    CLEAR     21  16  81 N9        30.56R
HUTCHINSON     CLEAR     17  11  77 NW10      30.57R WCI   5
MEDICINE LODGE   N/A     17  11  77 N10       30.58R WCI   5
NEWTON         CLEAR     17  11  77 NW13      30.55R WCI   4
PARSONS        CLEAR     18  14  84 CALM      30.56R
WICHITA INTL   CLEAR     19  13  77 NW9       30.57R
WICHITA JABRA  CLEAR     18  14  84 W8        30.56R
WICHITA MCCONL CLEAR     20  13  76 N12       30.56R WCI   7
WINFIELD       CLEAR     20  15  81 N12       30.57R WCI   8
$$

KSZ007>012-019>026-033>040-048>060-102>105-080900-
NORTHEAST KANSAS

CITY           SKY/WX    TMP DP  RH WIND       PRES   REMARKS
CONCORDIA      CLEAR     15   5  64 NW15      30.55R WCI   0
EMPORIA        CLEAR     15  10  80 W8        30.54R
LAWRENCE       CLEAR     19   9  65 NW10      30.52R WCI   7
MANHATTAN      CLEAR     18   6  59 W3        30.56R
MARYSVILLE     CLEAR     16   9  73 NW16      30.53R WCI   0
OLATHE IND     CLEAR     18   8  65 NW10      30.50R WCI   6
OLATHE EXE     CLEAR     18   7  62 NW9       30.49R
SALINA         CLEAR     16   8  71 W9        30.60R
TOPEKA BILLARD CLEAR     19   7  59 W9        30.54R
TOPEKA FORBES  CLEAR     19   8  62 NW12      30.52R WCI   7
$$




USA.gov is the U.S. government's official web portal to all federal, state and local government web resources and services.